Regional Weather Roundup
Issued by NWS Little Rock, AR

Home | Current Version | Previous Version | Graphics & Text | Print | Product List | Glossary On
Versions: 1 2 3 4 5 6 7 8 9 10 11 12 13 14 15 16 17 18 19 20 21 22 23 24 25 26 27 28 29 30 31 32 33 34 35 36 37 38 39 40 41 42 43 44 45 46 47 48 49 50
202
ASUS44 KLZK 060405
RWRLZK

WEATHER ROUNDUP FOR ARKANSAS
NATIONAL WEATHER SERVICE LITTLE ROCK AR
1000 PM CST FRI FEB 05 2016

NOTE: "FAIR" INDICATES FEW OR NO CLOUDS BELOW 12,000 FEET WITH NO
SIGNIFICANT WEATHER AND/OR OBSTRUCTIONS TO VISIBILITY.

ARZ001-003-010-029-060500-
NORTHWEST ARKANSAS

CITY           SKY/WX    TMP DP  RH WIND       PRES   REMARKS
FAYETTEVILLE   PTCLDY    29  20  69 CALM      30.31S
FORT SMITH     PTCLDY    38  19  46 CALM      30.33R
HARRISON       CLEAR     38  14  37 CALM      30.31S
BENTONVILLE    PTCLDY   N/A N/A N/A SE6       30.30S
ROGERS         PTCLDY    38  16  40 SE6       30.30F
SILOAM SPGS    PTCLDY    37  14  38 S6        30.30S
HIGHFILL       PTCLDY    37  17  44 S3        30.29F
$$

ARZ004-005-016-060500-
NORTH CENTRAL ARKANSAS

CITY           SKY/WX    TMP DP  RH WIND       PRES   REMARKS
BATESVILLE     CLEAR     43  18  36 S6        30.36F
FLIPPIN        PTCLDY    37  14  38 S6        30.31S
MTN HOME       CLEAR     40  15  36 S5        30.32R
$$

ARZ040-041-060500-
WEST CENTRAL ARKANSAS

CITY           SKY/WX    TMP DP  RH WIND       PRES   REMARKS
MENA           CLEAR     32  21  64 CALM      30.33F
MOUNT IDA      CLEAR     30  19  63 CALM      30.32S
$$

ARZ009-017-025-026-028-060500-
NORTHEAST ARKANSAS

CITY           SKY/WX    TMP DP  RH WIND       PRES   REMARKS
CORNING        FAIR      37  28  70 SW10      30.36S
JONESBORO      CLEAR     39  25  57 SW6       30.37S
NEWPORT        PTCLDY    35  28  76 S7        30.38S WCI  29
WALNUT RIDGE   CLEAR     36  25  64 SW7       30.36S
BLYTHEVILLE    CLEAR     39  27  62 S7        30.37S
$$

ARZ022-023-033-042-044-060500-
CENTRAL ARKANSAS

CITY           SKY/WX    TMP DP  RH WIND       PRES   REMARKS
LITTLE ROCK    MOCLDY    38  22  52 S3        30.38S
N LITTLE ROCK  MOCLDY    42  24  48 S6        30.38S
JACKSONVILLE   CLEAR     30  22  74 E1        30.36S
SEARCY         CLEAR     32  27  80 CALM      30.39S
HOT SPRINGS    CLEAR     33  20  58 CALM      30.36S
RUSSELLVILLE   CLEAR     32  23  69 CALM      30.34S
CLINTON        FAIR      28  23  80 CALM      30.37S
$$

ARZ036-060500-
EAST ARKANSAS

CITY           SKY/WX    TMP DP  RH WIND       PRES   REMARKS
WEST MEMPHIS   CLEAR     36  28  73 S3        30.37F
$$

ARZ050-053-066-070-073-060500-
SOUTHWEST ARKANSAS

CITY           SKY/WX    TMP DP  RH WIND       PRES   REMARKS
ARKADELPHIA    FAIR      30  29  96 CALM      30.39R
CAMDEN         CLEAR     32  25  74 CALM      30.38S
TEXARKANA      CLEAR     36  21  54 CALM      30.36R
EL DORADO      CLOUDY    38  25  59 CALM      30.38S
DE QUEEN       CLEAR     30  25  81 CALM      30.34F
$$

ARZ056-057-069-060500-
SOUTHEAST ARKANSAS

CITY           SKY/WX    TMP DP  RH WIND       PRES   REMARKS
PINE BLUFF     CLEAR     39  24  55 CALM      30.38F
STUTTGART      CLEAR     39  28  65 SE7       30.38S
MONTICELLO     CLEAR     39  23  52 SE5       30.38S

$$






USA.gov is the U.S. government's official web portal to all federal, state and local government web resources and services.